Northeast Philadelphia, PA

11:37 AM EDT on September 22, 2017 (GMT -0400)
Northeast Philadelphia

Weather History for KPNE - September, 2013

Change the Weather History Date:

Tuesday, September 3, 2013

  Actual Average Record
Temperature  
Mean Temperature 78 °F -  
Max Temperature 84 °F 79 °F 96 °F (2015)
Min Temperature 69 °F 61 °F 53 °F (2001)
Cooling Degree Days 12    
Growing Degree Days 28 (Base 50)    
Moisture  
Dew Point 66 °F    
Average Humidity 76    
Maximum Humidity 97    
Minimum Humidity 41    
Precipitation  
Precipitation 0.01 in - - ()
Sea Level Pressure  
Sea Level Pressure 29.80 in    
Wind  
Wind Speed 3 mph (NW)    
Max Wind Speed 12 mph    
Max Gust Speed 18 mph    
Visibility 7 miles    
Events      
Averages and records for this station are not official NWS values.
T = Trace of Precipitation, MM = Missing Value Source: NWS Daily Summary

Daily Weather History Graph

Daily Weather History Graph

Search for Another Location

Airport or City:

Trip Planner

Search our weather history database for the weather conditions in past years. The results will help you decide how hot, cold, wet, or windy it might be!

Date:

Astronomy

Sep. 03, 2013 Rise Set
Actual Time 6:29 AM EDT 7:28 PM EDT
Civil Twilight 6:02 AM EDT 7:55 PM EDT
Nautical Twilight 5:29 AM EDT 8:28 PM EDT
Astronomical Twilight 4:54 AM EDT 9:02 PM EDT
Moon 4:41 AM EDT (9/3) 6:13 PM EDT (9/3)
Length of Visible Light 13h 53m
Length of Day
12h 58m
Waning Crescent, 3% of the Moon is Illuminated
Sep 3
Waning Crescent
Sep 5
New
Sep 12
First Quarter
Sep 19
Full
Sep 26
Last Quarter

Hourly Weather History & Observations

Time (EDT) Temp. Heat Index Dew Point Humidity Pressure Visibility Wind Dir Wind Speed Gust Speed Precip Events Conditions
12:54 AM 73.0 °F - 71.1 °F 93% 29.76 in 8.0 mi Calm Calm - N/A   Scattered Clouds
1:54 AM 73.0 °F - 71.1 °F 93% 29.75 in 5.0 mi Calm Calm - N/A   Clear
2:54 AM 72.0 °F - 70.0 °F 93% 29.74 in 6.0 mi Calm Calm - N/A   Partly Cloudy
3:54 AM 73.0 °F - 71.1 °F 93% 29.74 in 4.0 mi Calm Calm - 0.01 in   Partly Cloudy
4:05 AM 73.4 °F - 71.6 °F 94% 29.74 in 2.5 mi Calm Calm - N/A   Clear
4:12 AM 73.4 °F - 71.6 °F 94% 29.74 in 5.0 mi Calm Calm - N/A   Partly Cloudy
4:54 AM 72.0 °F - 71.1 °F 97% 29.74 in 5.0 mi Calm Calm - N/A   Clear
5:03 AM 71.6 °F - 69.8 °F 94% 29.74 in 1.8 mi Calm Calm - N/A   Partly Cloudy
5:14 AM 71.6 °F - 69.8 °F 94% 29.74 in 3.0 mi Calm Calm - N/A   Scattered Clouds
5:29 AM 71.6 °F - 69.8 °F 94% 29.74 in 1.8 mi Calm Calm - N/A   Partly Cloudy
5:36 AM 71.6 °F - 69.8 °F 94% 29.75 in 0.8 mi Calm Calm - N/A   Mist
5:44 AM 71.6 °F - 69.8 °F 94% 29.75 in 1.2 mi Calm Calm - N/A   Partly Cloudy
5:54 AM 71.1 °F - 70.0 °F 96% 29.75 in 1.8 mi Calm Calm - N/A   Partly Cloudy
6:00 AM 71.6 °F - 69.8 °F 94% 29.76 in 3.0 mi Calm Calm - N/A   Partly Cloudy
6:09 AM 71.6 °F - 69.8 °F 94% 29.76 in 1.8 mi Calm Calm - N/A   Partly Cloudy
6:18 AM 71.6 °F - 69.8 °F 94% 29.76 in 3.0 mi NNW 6.9 mph - N/A   Clear
6:28 AM 71.6 °F - 69.8 °F 94% 29.77 in 7.0 mi NNW 5.8 mph - N/A   Scattered Clouds
6:54 AM 72.0 °F - 69.1 °F 91% 29.78 in 9.0 mi Calm Calm - N/A   Mostly Cloudy
7:54 AM 75.0 °F - 70.0 °F 84% 29.80 in 10.0 mi Variable 3.5 mph - N/A   Clear
8:54 AM 75.9 °F - 70.0 °F 82% 29.80 in 9.0 mi NNW 5.8 mph - N/A   Clear
9:54 AM 78.1 °F - 68.0 °F 71% 29.81 in 10.0 mi NNW 9.2 mph - N/A   Clear
10:54 AM 79.0 °F - 68.0 °F 69% 29.82 in 10.0 mi NNW 10.4 mph - N/A   Scattered Clouds
11:08 AM 78.8 °F - 68.0 °F 69% 29.82 in 10.0 mi NNW 10.4 mph - N/A   Mostly Cloudy
11:43 AM 80.6 °F 83.9 °F 69.8 °F 70% 29.82 in 10.0 mi NW 10.4 mph - N/A   Mostly Cloudy
11:54 AM 80.1 °F 82.3 °F 66.9 °F 64% 29.82 in 10.0 mi NNW 9.2 mph - N/A   Scattered Clouds
12:54 PM 81.0 °F 83.3 °F 66.9 °F 62% 29.82 in 10.0 mi NNW 9.2 mph - N/A   Partly Cloudy
1:54 PM 81.0 °F 82.5 °F 64.0 °F 56% 29.82 in 10.0 mi WNW 10.4 mph - N/A   Scattered Clouds
2:54 PM 84.0 °F 83.8 °F 59.0 °F 43% 29.81 in 10.0 mi WNW 10.4 mph 16.1 mph N/A   Scattered Clouds
3:54 PM 82.9 °F 82.6 °F 57.9 °F 42% 29.81 in 10.0 mi West 11.5 mph 18.4 mph N/A   Clear
4:54 PM 82.0 °F 81.6 °F 55.9 °F 41% 29.81 in 10.0 mi West 11.5 mph - N/A   Clear
5:54 PM 81.0 °F 81.0 °F 57.0 °F 44% 29.83 in 10.0 mi WNW 9.2 mph - N/A   Partly Cloudy
6:54 PM 79.0 °F - 55.0 °F 44% 29.84 in 10.0 mi WNW 9.2 mph - N/A   Clear
7:54 PM 75.9 °F - 55.9 °F 50% 29.86 in 10.0 mi NW 8.1 mph - N/A   Clear
8:54 PM 72.0 °F - 57.0 °F 59% 29.88 in 10.0 mi West 3.5 mph - N/A   Clear
9:54 PM 71.1 °F - 55.9 °F 59% 29.91 in 10.0 mi NW 6.9 mph - N/A   Clear
10:54 PM 71.1 °F - 55.9 °F 59% 29.92 in 10.0 mi NW 6.9 mph - N/A   Clear
11:54 PM 69.1 °F - 55.9 °F 63% 29.92 in 10.0 mi NW 8.1 mph - N/A   Clear